Weather in Guayama

Puerto Rico     17°59′04″N   66°06′50″W
temp.,
°C
wind,
m/s
gust,
m/s
humid.,
%
clouds,
%
prec.,
mm/h
press.,
hPa
HPBL,
m
22 april, thu
thu2223:00+23ene478631 0.4 1018428
02:00+23ene358753 0.9 1016336
05:00+23ene468744 1.9 1016369
08:00+25e587725 4.0 10181010
11:00+27e576459 0.4 10181265
14:00+27e576797 1.3 10161079
17:00+25e467498 1.8 1014778
20:00+23ene34834 2.0 1016297
23 april, fri
fri2323:00+23ene358418 0.1 1017357
02:00+23ene368357 0.4 1015443
05:00+22ene35826 0.0 1015333
08:00+25e35722 0.1 1017869
11:00+28ese46616 0.6 10171087
14:00+28ese56567 0.8 10151135
17:00+26ese456811 0.0 10151039
20:00+24ene248025 0.0 1016300
24 april, sat
sat2423:00+24ene467882 0.1 1017560
02:00+23ene468657 0.6 1016370
05:00+23ne46848 0.4 1015384
08:00+25ene46685 0.5 10171013
11:00+27e57535 0.0 10181246
14:00+27e566514 0.1 10161206
17:00+26e46675 0.1 1015957
20:00+23ene468627 0.2 1016308
25 april, sun
sun2523:00+23ne35810 0.1 1017331
02:00+22ne358272 0.2 1016340
05:00+22ene368022 0.0 1015398
08:00+25e466964 0.1 10171004
11:00+27e576214 0.1 10171255
14:00+28ese566211 0.8 10151259
17:00+27e45632 0.0 10141048
20:00+24ene357718 0.0 1016319
26 april, mon
mon2623:00+22ne358116 0.0 1016325
02:00+22ne358343 0.0 1014331
05:00+23ne3680100 0.1 1014441
08:00+24ene578152 1.2 1016783
11:00+25ese587879 3.6 1016953
14:00+27ese566196 4.4 10141228
17:00+26ese357063 0.0 1013921
20:00+23ne238021 0.0 1014305